Theta_e
300 301 302 303 304 308 308 316 318 309 307 314 316 318 318 313 316 315 317 318 320 321 323 325 325 325 325 324 325 327 328 330 330 328 330 330 331 332 333 333 335 331 334 333
300 300 301 303 304 311 312 319 317 310 311 315 316 316 315 314 315 316 317 317 319 321 323 325 325 327 324 323 325 326 328 329 331 330 331 330 331 331 333 336 336 334 332 334
300 300 301 303 304 311 315 320 319 313 313 315 316 317 316 316 314 314 315 317 317 319 321 324 326 328 326 326 325 324 328 328 331 329 330 331 333 332 331 333 333 335 332 334
300 300 301 302 303 309 314 317 319 317 316 316 318 319 318 317 316 315 317 318 318 319 322 323 325 329 330 328 326 326 328 331 330 329 330 330 332 331 331 333 333 333 332 333
299 300 301 302 304 307 313 317 318 316 319 319 319 316 321 320 319 318 317 318 320 320 321 324 328 329 331 330 330 330 329 332 330 329 328 328 330 331 331 332 333 333 332 334
299 299 300 301 303 305 310 310 311 315 316 319 320 320 320 319 318 319 317 319 321 323 324 322 326 328 329 332 334 333 332 330 334 328 329 329 330 331 331 332 333 333 334 342
299 299 300 300 302 303 306 305 310 315 320 320 319 317 317 319 319 320 322 322 325 325 323 325 327 325 327 328 332 334 335 336 334 330 334 332 335 334 332 335 335 337 339 341
299 299 299 300 301 302 303 303 308 311 317 317 318 317 317 319 320 321 320 323 323 322 323 329 331 330 330 330 330 333 334 335 335 336 333 336 338 339 337 337 336 338 339 340
299 299 299 299 300 302 303 303 303 308 311 315 313 316 315 319 321 324 323 322 323 322 327 329 331 328 328 331 330 330 334 338 335 334 333 335 337 337 336 334 337 337 339 341
298 299 299 299 300 300 302 304 304 308 310 310 312 315 315 313 317 322 321 319 325 325 327 328 327 325 327 327 329 332 333 333 332 333 333 334 335 336 333 333 338 337 339 341
297 299 298 299 299 300 300 302 303 305 310 309 308 309 312 312 313 319 317 323 326 327 327 327 327 326 327 328 330 331 331 330 331 333 332 334 336 338 335 342 343 341 339 339
297 298 298 298 299 299 300 302 300 300 305 309 304 305 305 307 309 310 314 321 321 321 329 328 327 327 327 331 327 329 331 336 332 334 336 340 340 344 344 345 345 342 340 339
299 297 298 298 298 299 299 300 300 303 309 310 311 313 313 309 308 310 313 315 313 318 318 326 328 330 328 327 329 331 334 333 332 334 338 342 343 343 342 341 345 342 338 339
299 297 298 298 298 298 299 301 304 306 309 311 315 312 313 311 310 310 309 309 309 308 315 323 326 326 323 327 328 329 331 334 338 334 338 339 342 341 340 342 344 344 340 340
299 297 297 298 297 298 301 303 305 306 309 312 312 312 313 313 311 311 311 310 308 311 313 321 324 321 324 324 326 326 329 333 331 334 340 341 342 340 340 342 343 341 341 341
299 297 297 298 297 297 303 310 307 308 307 311 314 312 315 314 313 314 314 313 311 311 313 315 318 318 322 325 326 331 331 332 332 335 337 338 339 339 342 339 338 341 341 339
298 297 297 297 297 298 305 310 309 307 306 311 312 315 316 314 314 314 314 312 312 313 311 312 315 318 318 324 324 329 330 330 333 335 336 336 336 339 340 341 338 338 338 338
297 297 297 297 297 297 304 308 307 305 306 309 314 316 316 315 315 316 313 314 312 312 314 313 313 315 317 320 322 325 326 328 333 333 331 330 335 337 336 337 337 335 335 335
297 297 297 298 302 308 309 305 305 305 308 311 312 316 318 316 316 316 315 315 316 314 313 313 313 314 315 318 320 321 324 326 328 328 331 329 330 334 334 333 332 330 328 327
296 297 305 306 308 307 306 306 310 310 309 308 310 313 318 317 317 317 317 317 317 317 317 315 315 315 318 318 320 322 322 322 324 326 329 329 329 330 329 328 326 324 324 323
298 305 308 307 307 307 309 310 311 311 310 309 309 310 315 316 319 318 318 319 319 318 319 318 318 317 322 321 322 322 322 323 323 325 326 326 326 326 326 326 325 325 325 325
304 306 306 307 308 309 311 311 311 312 311 312 312 311 309 316 319 319 319 319 319 319 319 319 318 325 322 322 321 320 320 321 321 322 322 322 323 322 323 323 323 323 322 323
305 307 308 309 309 309 309 310 311 313 313 315 315 314 311 316 319 319 320 319 319 319 320 320 324 322 322 322 321 320 319 318 318 318 319 319 319 319 320 320 320 320 320 321
307 309 308 310 309 309 310 311 313 314 315 317 318 316 316 317 318 318 318 319 319 320 320 322 323 322 322 321 319 319 318 318 317 318 318 318 318 318 319 319 319 319 320 320
308 308 310 309 309 309 310 311 312 313 314 317 318 318 317 317 317 318 318 318 319 319 321 322 322 322 320 317 314 317 317 317 317 317 318 318 318 319 320 320 320 320 319 319
307 308 309 310 311 311 312 313 314 313 316 317 317 317 317 317 317 317 317 318 319 322 322 321 320 318 317 317 317 317 317 317 318 318 318 319 319 320 320 320 320 319 319 319
307 309 310 310 312 313 314 315 315 315 317 318 317 317 316 317 317 317 318 320 322 321 320 320 318 317 317 317 317 317 317 317 317 318 319 319 320 319 319 319 318 317 316 317
Wind_Speed
11 11 12 13 12 10 3 2 3 4 13 10 6 9 3 1 5 4 3 4 4 3 2 4 7 10 6 3 13 16 13 9 10 13 7 3 7 11 12 10 10 6 7 6
11 12 12 12 12 10 2 1 2 5 10 5 8 4 6 4 5 4 4 4 3 2 3 4 6 3 1 4 11 10 12 9 9 11 8 5 8 10 11 5 2 7 8 6
9 11 12 11 10 8 1 2 4 5 5 0 3 5 7 7 6 9 10 8 6 8 9 5 5 6 5 4 11 2 8 13 13 11 13 6 9 12 13 15 8 11 11 7
9 9 9 11 10 5 1 2 2 2 5 7 4 4 0 6 6 9 5 8 14 12 7 10 10 8 7 6 5 6 10 12 16 15 3 5 7 12 13 13 12 8 6 7
9 10 9 9 9 3 4 2 2 2 3 2 6 4 5 7 6 6 9 11 7 7 13 12 9 5 4 6 7 8 9 10 14 17 13 13 9 8 11 9 6 4 2 5
9 10 10 9 8 3 3 3 3 2 5 5 6 3 1 1 2 10 14 6 7 11 8 12 8 9 4 3 6 9 8 11 9 16 9 12 14 13 14 12 10 5 7 8
7 8 9 9 9 9 8 7 3 3 4 5 1 1 4 6 6 9 1 7 8 3 8 9 9 9 6 5 2 8 7 11 7 10 8 14 4 4 8 11 9 5 5 8
6 6 7 7 8 8 9 9 4 3 4 3 5 3 4 7 4 7 9 7 3 8 5 7 6 6 6 6 2 5 8 11 5 7 12 3 7 7 8 13 11 6 6 8
4 5 6 6 7 7 8 9 8 3 6 3 4 6 4 5 4 4 3 2 6 2 5 9 11 10 10 8 8 3 5 8 8 6 10 10 12 8 5 4 9 6 5 9
4 4 5 6 6 6 5 5 7 3 5 2 4 3 6 5 4 3 1 6 2 1 6 9 10 12 1 7 12 7 8 6 9 9 7 6 8 5 6 9 6 7 5 6
4 4 5 5 4 4 4 3 4 4 4 8 3 4 5 6 5 4 6 5 4 2 5 5 4 8 4 3 3 1 5 5 5 2 5 5 1 5 5 5 5 4 9 8
4 3 4 5 4 4 3 3 5 5 4 6 8 10 11 10 7 7 5 3 6 6 4 1 3 3 4 1 6 2 3 4 3 5 5 3 2 4 3 3 4 4 7 9
3 2 2 4 3 3 2 2 5 6 4 7 3 1 3 2 1 4 4 4 4 3 4 5 2 1 4 5 3 3 3 1 1 3 5 5 3 3 4 4 3 3 8 9
3 3 1 2 3 3 2 2 3 3 4 5 4 2 1 1 2 3 0 3 6 5 4 4 3 2 4 2 3 4 6 2 2 2 2 1 2 3 3 4 3 7 8 8
4 3 2 2 2 2 2 1 2 4 1 5 2 0 1 1 4 4 4 4 4 4 3 3 2 3 4 2 2 4 1 2 5 4 3 2 4 2 2 4 6 9 10 9
5 3 2 2 0 2 3 1 3 3 6 3 2 1 2 2 4 2 2 2 0 2 3 3 2 1 4 3 3 4 1 1 2 4 1 2 4 3 6 8 10 11 11 11
5 3 2 2 2 4 2 1 2 4 4 3 4 4 4 4 5 2 2 1 1 1 1 4 3 2 4 3 3 8 3 2 2 4 4 4 2 5 8 9 11 12 11 11
5 4 3 2 3 4 2 3 1 4 1 2 3 2 6 5 7 5 1 2 2 3 1 4 6 3 3 4 5 3 2 3 2 3 4 3 3 5 6 7 9 9 9 8
5 4 3 5 4 2 5 4 3 4 2 4 3 3 2 5 5 2 4 3 3 2 4 3 3 4 5 3 5 6 5 4 4 4 4 2 1 4 5 6 7 10 4 6
7 9 2 3 4 4 4 1 1 2 3 4 5 1 3 5 7 7 2 4 2 3 3 3 4 5 4 2 4 6 7 7 6 5 6 3 2 3 4 4 4 3 2 3
10 4 3 4 7 3 2 3 4 4 4 6 5 5 4 3 4 3 2 3 1 3 5 3 4 4 6 2 5 7 7 6 3 2 3 2 2 2 2 2 3 4 6 5
9 7 7 6 3 3 4 3 3 4 2 5 5 3 8 2 3 4 4 3 1 4 6 3 4 5 6 6 7 8 8 9 9 7 5 4 4 4 4 6 7 8 8 9
12 3 4 4 4 3 5 7 4 3 5 3 4 5 5 5 4 4 3 5 4 4 4 3 3 8 8 6 5 5 6 7 7 6 5 5 6 6 7 9 10 12 13 13
3 4 2 4 4 4 3 2 3 5 1 2 2 4 5 4 4 3 3 2 2 3 4 2 4 10 8 5 4 4 6 7 7 8 8 9 9 10 11 11 12 14 15 16
3 3 3 5 1 3 2 2 2 3 2 2 3 3 2 4 3 2 3 3 4 2 1 3 7 8 5 1 4 6 8 9 11 11 11 11 11 11 12 11 12 13 16 17
2 3 4 5 4 5 6 5 4 2 2 3 3 3 3 4 2 3 4 2 2 2 4 9 9 6 2 4 7 9 11 12 12 12 11 10 10 10 11 12 13 14 14 15
2 4 5 2 0 1 2 2 2 2 3 4 4 4 2 1 3 3 1 1 2 7 9 8 6 2 3 6 8 9 9 10 10 9 8 8 9 8 8 9 10 10 12 13
Wind_Direction
343 342 343 349 354 351 351 168 214 166 152 193 205 219 227 247 222 208 254 286 285 288 302 241 230 221 233 174 191 197 211 225 245 213 109 329 294 260 212 233 181 246 306 112
349 345 346 353 358 4 74 156 105 160 170 213 209 149 212 251 232 219 238 256 244 322 288 286 239 221 51 187 201 208 185 225 221 227 195 182 227 209 232 245 282 183 229 129
355 348 347 355 2 8 73 235 178 155 199 108 277 206 221 228 210 253 259 273 270 258 265 228 285 237 170 200 230 55 223 233 233 242 219 192 193 203 207 208 203 169 225 114
360 2 353 352 2 23 67 315 79 344 177 194 213 234 160 230 228 220 228 238 241 253 265 241 234 234 210 188 185 219 224 228 228 244 246 248 244 191 196 221 235 232 217 195
8 6 8 4 5 34 58 330 311 195 129 172 223 160 211 257 241 236 214 234 240 232 237 258 337 309 231 223 172 194 216 230 227 233 226 239 232 208 196 211 219 214 245 138
11 9 9 23 26 63 82 59 39 292 142 186 227 147 190 268 265 235 249 263 277 259 265 266 293 289 289 310 257 200 200 214 213 231 205 219 227 214 211 200 192 218 214 78
16 14 11 22 39 63 82 63 69 280 163 239 166 225 282 280 259 260 281 265 237 2 323 282 260 249 236 233 206 239 204 206 216 233 189 218 113 152 213 203 187 182 121 97
15 20 15 23 37 51 60 55 67 5 277 305 215 282 303 292 248 234 257 271 304 306 279 229 208 201 208 199 199 198 226 208 186 200 214 109 146 171 183 187 173 148 121 124
14 20 19 19 33 41 54 46 40 38 313 159 332 308 331 329 338 200 214 289 316 242 248 219 216 208 214 189 177 201 161 243 228 197 210 214 137 132 160 172 152 121 131 143
11 19 20 19 28 35 43 30 27 31 287 318 328 331 342 338 317 282 312 335 307 356 228 228 218 219 252 211 204 182 191 221 213 193 209 93 110 130 153 207 101 119 140 147
5 17 19 20 20 29 38 347 353 22 292 289 277 299 320 329 358 332 357 253 56 326 249 264 196 266 136 208 49 239 218 225 193 233 214 143 108 179 243 36 84 94 141 142
359 8 15 16 13 17 27 36 334 319 267 280 284 281 269 266 279 297 343 28 76 2 281 326 265 195 211 327 174 154 186 355 21 344 51 60 30 44 37 27 47 102 140 134
331 347 7 14 11 7 2 343 334 342 287 275 262 193 294 316 312 215 313 52 25 37 329 322 316 272 288 205 108 151 111 39 354 263 88 64 59 51 75 60 71 116 140 135
284 317 304 3 19 8 2 10 359 12 293 279 110 49 83 105 80 85 16 337 354 350 316 288 309 318 329 50 39 292 40 201 128 228 154 127 126 97 67 53 79 135 151 130
259 287 273 318 36 41 41 83 32 22 31 328 327 77 56 68 108 92 46 18 2 343 317 291 359 325 297 18 291 241 192 63 255 30 44 337 107 122 90 120 110 125 127 124
253 261 244 273 107 104 114 221 348 351 360 294 250 1 154 138 144 118 59 49 61 305 316 335 291 307 281 239 255 60 137 95 342 9 108 119 144 148 137 120 104 110 117 118
231 234 224 236 190 166 176 277 217 330 350 300 262 180 182 183 186 204 289 3 222 264 255 267 285 239 301 275 266 143 123 51 69 102 107 119 144 170 153 127 107 107 113 117
211 217 203 208 195 169 162 213 194 1 354 271 275 159 191 194 208 202 188 248 225 192 250 218 238 218 240 255 85 30 316 325 171 151 47 27 91 114 125 127 123 110 102 95
191 181 156 127 147 175 222 208 260 304 215 294 256 260 133 182 211 202 188 240 226 136 242 212 239 193 225 45 340 316 322 317 302 300 272 334 165 122 127 124 120 89 66 91
167 149 115 178 192 178 159 315 144 213 221 235 261 249 210 231 183 194 247 201 245 224 138 144 235 227 82 4 334 325 315 293 273 300 242 244 161 134 117 106 92 91 64 53
150 161 172 185 156 144 208 209 214 171 226 205 237 249 272 175 228 211 257 278 209 247 141 237 191 212 124 90 60 48 41 56 100 106 89 93 119 114 77 35 33 25 18 9
170 152 138 146 180 201 225 202 167 223 221 174 230 186 217 171 201 213 195 253 215 254 139 226 233 102 127 116 86 72 65 66 69 75 76 60 48 26 357 337 334 333 327 324
141 141 166 187 171 204 217 179 177 198 176 177 199 195 206 193 214 233 220 231 228 123 207 229 55 144 145 124 102 70 48 42 37 27 17 2 347 333 324 313 307 303 302 302
164 171 181 220 184 227 184 182 94 87 196 253 258 208 198 186 205 221 246 198 254 232 222 167 115 157 137 114 66 25 6 358 351 343 337 331 323 314 308 302 298 298 297 297
192 193 222 198 195 182 175 186 208 192 282 240 178 204 228 187 243 227 278 227 232 267 49 95 126 142 132 86 350 345 333 327 323 319 316 312 310 308 307 305 301 299 300 300
205 225 216 164 196 160 177 179 211 212 213 186 204 192 197 198 232 230 225 261 327 86 101 123 136 130 77 345 330 320 315 313 310 308 307 307 311 306 304 304 304 302 301 302
209 206 200 225 331 102 140 185 181 192 231 204 208 190 173 61 228 222 277 6 93 121 117 117 99 65 337 319 315 309 314 314 310 304 304 301 298 303 297 302 314 311 311 318